Location: Powder Track
(41.8531°N, 72.3584°W)
Time: 01:07:24
(UTC+00:00)

Vanguard 1 Rocket - Pass Details

Date: 07 August 2021
Orbit: 650 x 4226 km, 34.3° (Epoch: 16 September)

Event Time Altitude Azimuth Distance (km) Brightness Sun altitude
Rises 08:52:29 0° 177° (S) 8,049 11.9 -10.2°
Reaches altitude 10° 09:02:37 10° 158° (SSE) 7,369 11.9 -8.6°
Maximum altitude 09:14:04 15° 131° (SE) 6,936 12.1 -6.8°
Drops below altitude 10° 09:24:48 10° 104° (ESE) 7,002 12.7 -5.0°
Sets 09:33:28 0° 85° (E) 7,465 13.6 -3.6°
